Regional Weather Roundup
Issued by NWS

Home | Current Version | Previous Version | Graphics & Text | Print | Product List | Glossary On
Versions: 1 2 3 4 5 6 7 8 9 10 11 12 13 14 15 16 17 18 19 20 21 22 23 24 25 26 27 28 29 30 31 32 33 34 35 36 37 38 39 40 41 42 43 44 45 46 47 48 49 50
000
ASUS45 KCYS 040310
RWRWY

WYOMING REGIONAL WEATHER ROUNDUP
NATIONAL WEATHER SERVICE CHEYENNE WY
900 PM MDT THU SEP 03 2015

NOTE:  "FAIR" INDICATES FEW OR NO CLOUDS BELOW 12,000 FEET
WITH NO SIGNIFICANT WEATHER AND/OR OBSTRUCTIONS TO VISIBILITY.

WYZ001-040400-
YELLOWSTONE NATIONAL PARK

CITY           SKY/WX    TMP DP  RH WIND       PRES   REMARKS
LK YELLOWSTONE   N/A     52  38  58 NW3       30.04R
W YELLOWSTONE  NOT AVBL

$$
WYZ002>013-054>058-071-098>099-040400-
NORTHERN WYOMING

CITY           SKY/WX    TMP DP  RH WIND       PRES   REMARKS
JACKSON        MOCLDY    61  37  41 S3        29.93R
CODY           FAIR      63  43  48 NE9       29.87R
GREYBULL       FAIR      76  40  27 NW17      29.75R
WORLAND        FAIR      72  40  31 NE6       29.77R
SHERIDAN       FAIR      69  40  34 W14       29.83R
BUFFALO        FAIR      68  42  38 NW20G26   29.87R
GILLETTE       FAIR      80  40  23 S20       29.78R
HULETT         FAIR      77  46  33 SE15G21   29.81R
NEWCASTLE      FAIR      79  37  22 SE10      29.82S

$$
WYZ014>020-022>026-101>103-040400-
CENTRAL WYOMING

CITY           SKY/WX    TMP DP  RH WIND       PRES   REMARKS
BIG PINEY      FAIR      60  32  34 W7        29.99R
PINEDALE       FAIR      63  32  31 SW6       30.00R
DUBOIS         MOCLDY    61  30  31 SW12      29.97R
LANDER         FAIR      70  33  25 S18       29.85R
RIVERTON       FAIR      73  32  22 S13       29.86R
CASPER         FAIR      72  41  32 SE9G20    29.92R
DOUGLAS        FAIR      67  52  58 SW10      29.93F

$$
WYZ021-027>030-104>119-040400-
SOUTHERN WYOMING

CITY           SKY/WX    TMP DP  RH WIND       PRES   REMARKS
EVANSTON       FAIR      66  26  22 S14       29.99R
KEMMERER       MOCLDY    64  25  22 S6        30.02R
FORT BRIDGER   CLEAR     68  27  21 SW12      30.03R
ROCK SPRINGS   FAIR      67  35  30 S12       29.98R
DIXON          FAIR      63  46  54 E13       30.07R
RAWLINS        FAIR      59  44  57 SE5       30.06R
SARATOGA       FAIR      57  46  67 SE16      30.10S
LARAMIE        FAIR      50 N/A N/A SW7       30.12F
CHEYENNE       FAIR      60  48  64 W9        30.04S
TORRINGTON     CLOUDY    73  49  42 W16       29.90R
PINE BLUFFS    FAIR      66  46  48 CALM      30.01R

$$


USA.gov is the U.S. government's official web portal to all federal, state and local government web resources and services.